Location: Bonnesvalyn
(49.1218°N, 3.3177°E)
Time: 00:11:08
(UTC+00:00)

Meteor 2-2 Rocket - Pass Details

Date: 09 February 2023
Orbit: 853 x 927 km, 81.3° (Epoch: 01 April)

Event Time Altitude Azimuth Distance (km) Brightness Sun altitude
Rises 19:18:23 0° 346° (NNW) 3,444 7.6 -23.6°
Reaches altitude 10° 19:20:48 10° 345° (NNW) 2,509 6.9 -24.0°
Maximum altitude 19:26:29 75° 261° (W) 902 4.4 -24.9°
Drops below altitude 10° 19:32:13 10° 177° (S) 2,533 6.6 -25.8°
Sets 19:34:41 0° 176° (S) 3,479 7.3 -26.2°
